Location: Gollag?dem
(16.8131°N, 80.8659°E)
Time: 06:37:00
(UTC+00:00)

Daily predictions for brighter satellites

Satellite Brightness Start Highest point End
(mag) Time Altitude Azimuth Time Altitude Azimuth Time Altitude Azimuth
Ariane H10+ 3.4 13:23:02 10° SW 13:27:29 31° SSE 13:35:45 10° ESE
BREEZE-M DEB (TANK) 3.3 13:30:01 10° NW 13:40:03 74° SW 13:43:18 10° SSE
Tiangong -0.5 13:43:35 10° WSW 13:46:38 39° NW 13:49:41 10° NNE
Centaur AC-119 2.9 13:45:01 10° NW 13:46:53 24° NNE 13:49:44 10° E
ATLAS 5 CENTAUR R/B 3.6 13:43:10 10° SW 13:49:56 65° SSE 14:21:46 10° ENE
Cosmos 292 Rocket 3.7 13:53:23 10° SSW 13:58:10 89° ESE 14:02:57 10° NNE
Cosmos 1656 Rocket 3.7 13:53:31 10° S 13:59:01 61° ESE 14:04:29 10° NNE
ATLAS 3B R/B 3.1 13:51:47 10° NNW 13:59:20 75° WSW 14:06:21 10° SSE
SL-19 R/B 4.4 13:58:29 12° SE 14:01:26 44° ENE 14:04:56 10° N
Resurs 01 Rocket 1.7 14:01:45 10° SSE 14:06:04 59° ENE 14:10:22 10° N
Ariane 42P Rocket 4.3 14:04:53 10° SW 14:06:41 12° SSW 14:08:12 10° SSE
Ariane 3 Deb 4.4 14:06:44 10° SW 14:09:36 21° S 14:12:01 16° SE
Meteor 1-24 Rocket 4.1 14:07:34 10° SSW 14:13:17 69° W 14:18:46 10° N
GPS 2-17 Rocket1 2.9 14:11:54 10° W 14:16:03 62° SSW 14:18:12 26° ESE
Cosmos 1814 Rocket 4.1 14:14:11 10° N 14:19:15 53° ENE 14:22:25 22° SE
Cosmos 1072 Rocket 4.4 14:16:58 10° N 14:23:11 73° E 14:29:28 10° S
USA 186 3.9 14:25:28 12° NE 14:25:28 12° NE 14:25:51 10° NNE
Cosmos 1908 Rocket 3.4 14:20:21 10° N 14:24:45 75° E 14:27:56 18° S
Cosmos 2369 Rocket 2.2 14:20:44 10° S 14:26:17 56° ESE 14:31:50 10° NNE
Cosmos 1503 Rocket 4.2 14:22:36 10° S 14:27:31 45° ESE 14:32:25 10° NNE
OAO 2 Rocket 3.2 14:22:41 10° SW 14:27:40 87° SE 14:32:30 10° ENE
SL-08 R/B 3.9 14:24:15 10° N 14:28:49 59° WNW 14:33:28 10° SSW
Cosmos 2082 Rocket 3.1 14:24:33 10° N 14:29:27 29° ENE 14:30:52 26° E
Cosmos 1833 Rocket 3.9 14:24:56 10° NW 14:30:06 40° WSW 14:35:17 10° S
Hubble Space Telescope 0.6 14:27:41 10° WSW 14:31:30 79° NNW 14:33:29 27° ENE
Meteosat 1 Rocket2 2.8 14:29:16 10° WNW 14:33:03 86° SSW 14:34:40 39° ESE
SWIFT 1.7 14:30:08 10° WSW 14:33:41 75° SSE 14:34:19 55° E
CZ-4C R/B 3.3 14:38:17 16° NE 14:38:17 16° NE 14:39:15 10° NE
Cosmos 1354 Rocket 4.5 14:36:08 35° ESE 14:36:51 36° E 14:41:36 10° NE
ATLAS 2A CENTAUR R/B 4.3 14:19:36 10° WNW 14:38:25 39° SW 14:42:12 20° S
CZ-4 R/B 1.0 14:38:28 47° SSE 14:39:27 84° ENE 14:43:07 10° N
Delta 7925 Rocket 3.8 14:39:04 10° W 14:43:35 55° NNW 14:47:00 19° NE
PAYLOAD B 4.2 14:43:08 36° SE 14:45:17 61° ENE 14:50:42 10° N
Cosmos 2263 4.1 14:41:22 10° S 14:46:59 63° ESE 14:52:34 10° NNE
USA 267 3.3 14:43:24 29° SSE 14:47:06 81° SW 14:53:39 10° NW
CZ-2C R/B 2.5 14:50:16 70° WNW 14:50:16 70° WNW 14:53:21 10° NNW
Cosmos 1464 Rocket 4.3 14:46:13 10° NNW 14:52:15 64° W 14:57:45 13° S
NATO 3D Rocket 4.4 14:48:27 10° WNW 14:54:09 61° N 14:58:13 28° ENE
CZ-4B R/B 4.3 14:54:41 36° ENE 14:54:41 36° ENE 14:59:13 10° N
Aurora 2 Rocket 4.3 14:47:45 10° SW 14:56:30 43° SSE 14:57:58 40° SE
SEDSat Delta rocket 3.5 14:51:54 10° WNW 14:57:14 81° NNE 14:58:35 54° ESE
Cosmos 1777 Rocket 4.1 14:52:24 10° SSW 14:57:36 73° WNW 15:02:47 10° N
Cosmos 1461 2.7 14:55:25 10° NNW 14:59:15 79° WNW 14:59:15 79° WNW
Atlas Centaur 2 3.6 15:03:54 10° WSW 15:04:42 12° SW 15:04:42 12° SW
Cosmos 44 3.2 15:08:22 62° N 15:08:22 62° N 15:12:01 10° NNE
Terra 3.3 15:22:58 26° NNE 15:22:58 26° NNE 15:25:14 10° N
Cosmos 1634 Rocket 3.9 15:17:12 10° N 15:23:06 69° ENE 15:23:06 69° ENE
MOS 1-B 4.4 15:30:57 69° NNE 15:30:57 69° NNE 15:36:04 10° N
SPOT 5 3.6 15:31:31 49° WSW 15:31:50 49° W 15:36:54 10° NNW
Meteor 1-21 Rocket 4.4 15:31:59 64° WSW 15:32:30 68° W 15:38:07 10° N
ERS-1 Rocket 3.9 15:38:03 40° N 15:38:03 40° N 15:41:14 10° N
Ariane H10+ 4.0 15:35:29 10° WSW 15:43:27 50° S 15:43:37 50° S
CZ-4B R/B 4.3 15:47:30 37° WSW 15:47:32 37° W 15:52:28 10° NW
Palapa 6 Rocket 4.4 15:45:56 10° WNW 15:53:33 71° N 15:53:33 71° N
COSMOS 2406 4.1 15:51:17 10° NNW 15:55:24 47° NW 15:55:24 47° NW
Okean O Rocket 4.0 16:00:34 21° NW 16:00:34 21° NW 16:02:11 10° NNW
Cosmos 2082 Rocket 4.1 16:08:56 10° NW 16:12:44 22° W 16:12:44 22° W
Cosmos 2219 Rocket 4.3 20:55:39 20° NNE 20:55:39 20° NNE 20:57:17 10° NNE
ADEOS II 4.2 21:03:19 10° NNE 21:04:57 21° NNE 21:04:57 21° NNE
Orbus 21S 4.0 21:36:14 50° N 21:36:37 51° N 21:54:25 10° ENE
Lacrosse 4 Rocket 3.7 21:40:32 21° NE 21:40:32 21° NE 21:42:05 10° NE
CZ-2C R/B 4.0 21:37:24 10° NE 21:41:48 29° E 21:42:27 28° ESE
USA 234 3.4 21:40:08 10° NE 21:46:32 59° SE 21:47:04 57° SSE
H-II Stage 2 4.0 21:50:12 22° ENE 21:50:12 22° ENE 21:52:22 10° ENE
Meteor 2-13 Rocket 4.5 21:42:29 10° N 21:48:37 74° E 21:48:58 71° ESE
Cosmos 2218 Rocket 4.4 21:49:07 48° SE 21:50:26 57° E 21:56:28 10° NNE
GPS 2-12 Rocket1 4.3 21:55:46 37° E 21:55:46 37° E 21:58:36 10° E
SeaSat 1 3.2 21:55:38 45° N 21:55:38 45° N 21:59:02 10° NNW
Meteor 1-11 Rocket 4.4 21:54:14 41° SE 21:55:31 49° E 22:00:59 10° NNE
DELTA 2 R/B (1) 3.8 21:56:37 66° E 21:56:37 66° E 22:01:29 10° SE
COSMOS 2428 3.1 22:01:14 50° NW 22:01:14 50° NW 22:05:52 10° N
SL-16 R/B 3.2 21:56:27 10° SSE 22:02:29 54° ENE 22:08:32 10° N
Cosmos 2237 Rocket 2.9 22:01:42 39° SE 22:03:04 47° ESE 22:08:26 10° NNE
Chandra Rocket (1) 2.8 22:07:31 47° E 22:07:31 47° E 22:12:39 10° ESE
Cosmos 1066 Rocket 4.5 22:01:28 10° NNW 22:05:32 51° NNW 22:05:32 51° NNW
Cosmos 407 Rocket 3.5 22:02:19 10° NNW 22:07:01 71° NNW 22:07:01 71° NNW
ASC 2 Rocket 3.9 22:08:33 42° N 22:08:37 42° NNE 22:12:58 10° E
SL-8 Rocket 3.8 22:10:34 67° WSW 22:11:01 70° W 22:17:11 10° N
Sakura Rocket 3.7 22:12:10 64° WNW 22:12:53 72° NNW 22:20:09 10° ENE
USA 281 4.0 22:08:10 10° NE 22:14:27 47° ESE 22:18:42 20° S
BREEZE-M TANK 3.9 22:06:05 10° NW 22:14:43 56° NE 22:18:37 10° ESE
CZ-3 Stage 3 4.4 22:10:05 16° NW 22:15:12 39° N 22:36:48 10° ENE
Cosmos 1975 3.5 22:16:05 46° ENE 22:16:05 46° ENE 22:19:24 10° NNE
Cosmos 1766 4.3 22:16:58 37° NE 22:16:58 37° NE 22:19:16 10° NNE
NOSS 0 Rocket 3.8 22:16:25 61° WSW 22:17:20 69° WNW 22:23:32 10° NNE
Iridium 4 Rocket 3.7 22:16:24 46° S 22:18:14 88° E 22:23:56 10° N
Cosmos 1331 Rocket 3.8 22:18:10 72° SSW 22:18:43 90° SSE 22:23:51 10° NNE
Aurora 2 Rocket 2.9 22:24:11 41° NE 22:24:11 41° NE 22:26:45 10° E
Cosmos 1452 Rocket 3.4 22:26:35 53° SSW 22:27:52 88° WNW 22:33:06 10° NNE
USA 238 DEB 3.4 22:28:57 49° WSW 22:30:22 63° WNW 22:36:29 10° NNE
USA 238 3.4 22:29:02 49° WSW 22:30:28 64° WNW 22:36:35 10° NNE
BREEZE-M DEB (TANK) 3.6 22:28:52 14° NNW 22:31:44 70° NE 22:41:40 10° SE
BREEZE-M DEB (TANK) 4.0 22:31:36 31° S 22:33:46 55° ESE 22:48:05 10° NE
Intercosmos 25 Rocket 4.2 22:30:41 10° NNW 22:37:56 61° W 22:39:44 38° SSW
BREEZE M DEB (TANK) 4.1 22:38:34 22° NW 22:38:34 22° NW 22:40:44 10° N
ARGOS 3.1 22:32:46 10° NNE 22:38:11 87° WNW 22:41:08 28° SSW
H-2A R/B 3.0 22:35:08 10° NNW 22:38:47 27° WNW 22:38:47 27° WNW
ATLAS 5 CENTAUR R/B 2.5 22:35:40 10° NW 22:41:15 52° WSW 22:47:49 10° S
Cosmos 1954 Rocket 4.3 22:36:42 10° N 22:41:53 67° ENE 22:47:04 10° SSE
Maqsat-H 4.3 22:39:17 18° SSW 22:41:53 22° SSE 22:54:20 10° ESE
Cosmos 1328 Rocket 3.6 22:39:03 10° N 22:43:18 73° E 22:47:32 10° S
Cosmos 2366 rocket 4.5 22:42:29 34° WSW 22:43:46 38° W 22:49:28 10° NNW
Meteor 1-28 Rocket 3.8 22:45:14 34° NW 22:45:14 34° NW 22:47:22 10° NNW
Milstar 3 Cent rocket 3.8 22:39:44 10° WNW 22:44:52 25° N 22:48:49 10° NE
NOSS 2-3 (C) 3.5 22:46:05 46° WNW 22:46:17 47° WNW 22:49:42 10° N
NOSS 2-3 (D) 3.8 22:49:32 39° W 22:49:59 41° WNW 22:53:32 10° N
Hubble Space Telescope 2.0 22:54:40 23° S 22:54:40 23° S 22:56:51 10° SSE
Cosmos 2251 Rocket 3.7 22:48:45 10° NNW 22:53:44 46° W 22:58:41 10° S
ADEOS Rocket 3.6 22:47:54 10° N 22:55:35 66° WNW 23:02:09 14° SSW
In-Cosmos 22 4.3 22:51:58 10° NNW 22:57:09 50° W 23:02:27 10° SSW
SJ 16-02 2.3 22:54:59 10° N 22:59:06 47° ENE 23:03:12 10° SSE
GMS 1 Rocket B 4.4 23:00:51 29° W 23:02:31 52° SSW 23:06:39 10° SE
CZ-4 R/B 3.8 22:57:50 10° NNE 23:02:36 88° ESE 23:07:13 10° SSW
COSMOS 2455 3.5 23:00:56 25° WSW 23:03:40 37° WNW 23:09:11 10° N
Cosmos 1190 Rocket 4.2 22:59:49 10° NNW 23:04:45 47° W 23:09:43 10° S
Longmarch 3A Rocket 3.1 22:59:46 20° SW 23:05:25 47° SSE 23:08:32 10° E
Cosmos 1300 3.2 23:03:55 10° SSE 23:06:53 45° E 23:09:51 10° NNE
Sich 1 2.8 23:06:19 14° SSW 23:09:50 68° W 23:13:58 10° N
Cosmos 1302 Rocket 4.0 23:09:31 15° SSW 23:13:48 61° WNW 23:18:58 10° N
Cosmos 1743 Rocket 4.2 23:10:01 10° S 23:14:14 56° E 23:18:27 10° NNE
Intelsat 5-1 Rocket 4.3 22:52:41 10° WNW 23:14:35 78° SSW 23:21:24 10° ESE
OAO 2 Rocket 3.2 23:09:44 10° WNW 23:14:39 68° SW 23:19:39 10° SE
CZ-2C R/B 4.0 23:15:57 10° NNW 23:19:32 19° WNW 23:21:41 15° WSW
SL-16 R/B 2.6 23:16:37 10° S 23:22:11 64° ESE 23:27:45 10° NNE
Cosmos 2278 Rocket 4.1 23:19:04 10° N 23:24:09 34° ENE 23:29:15 10° SE
Star 63D 3.8 23:20:18 10° WNW 23:24:26 56° N 23:26:44 10° E
Cosmos 1437 Rocket 3.9 23:25:11 10° NW 23:27:51 20° W 23:29:48 13° SW
NOAA 12 4.3 23:24:18 10° NNE 23:29:35 79° ESE 23:34:52 10° S
Cosmos 1408 Rocket 4.0 23:26:28 10° SSW 23:30:24 37° W 23:34:22 10° NNW
Tiangong -0.1 23:34:55 13° WSW 23:35:35 13° SW 23:37:13 10° SSW
GPS 2-12 Rocket1 3.4 23:32:25 10° W 23:36:59 60° N 23:41:33 10° ENE
ACS3 Solar Sail 1.8 23:33:13 10° N 23:39:16 71° WNW 23:45:28 10° SSW
Yuri Rocket 4.4 23:41:55 10° WSW 23:44:52 19° SSW 23:47:54 10° SSE
SL-16 R/B 4.0 23:42:57 10° SW 23:46:01 14° W 23:49:06 10° WNW
Cosmos 1455 1.3 23:43:28 10° S 23:46:02 78° E 23:48:37 10° N
Cosmos 1500 Rocket 4.5 23:42:37 10° SW 23:46:29 29° W 23:50:20 10° NNW
SAR-Lupe-4 4.4 23:43:23 10° NNE 23:46:51 52° E 23:50:17 10° S
Cosmos 2237 Rocket 4.0 23:44:28 10° W 23:47:08 13° WNW 23:49:47 10° NW
MOS 1-B Rocket 4.2 23:41:22 10° N 23:48:17 66° WNW 23:54:14 10° SSW
IRS-1D 4.5 23:44:17 10° NNW 23:48:23 27° WNW 23:52:30 10° SW
Cosmos 371 Rocket 3.2 23:43:49 10° NNW 23:48:34 74° WSW 23:53:17 10° S
